sat.trackr.live / text

‹ back to catalog

LKW-3

NORAD 43146 · 2018-006A

PAYLOAD ACTIVE UNKNOWN

§ Identity

Operator
Country
PRC
Launch date
2018-01-13
Launch site
JSC
Launch vehicle
Mass (kg)
RCS (m²)

External: N2YO · Heavens-Above · Gunter

§ Orbital elements

Epoch: 2026-09-13T04:41:24.304416Z

Period
93.70 min
Inclination
97.6703°
Eccentricity
0.0003174
Mean motion
15.36746923 rev/d
Perigee alt
453.6 km
Apogee alt
457.9 km
Semi-major
6,833.9 km
B*
1.8606e-4
RAAN
60.3659°
Arg perigee
16.3357°
Mean anomaly
343.7989°
Rev number
48,222

§ Raw data

LKW-31 43146U 18006A   26256.19542019  .00006592  00000+0  18606-3 0  99902 43146  97.6703  60.3659 0003174  16.3357 343.7989 15.36746923482228

JSON: /api/v1/satellites/43146 · /tle

For live sub-satellite position, see the globe view (requires WebGL).

§ Visibility from observer

Set your observer location to see the next 7 days of passes ≥ 10°. The values pass through the URL so the page stays shareable.

No JS? Fill the form by hand. The geolocation button needs JavaScript.

§ Radio — SatNOGS DB

ModeDescriptionDownlinkUplink
FM S-band telemetry 2.219 GHz

1 transmitter · refreshed weekly from db.satnogs.org